Regional Weather Roundup
Issued by NWS

Home | Current Version | Previous Version | Text Only | Print | Product List | Glossary Off
Versions: 1 2 3 4 5 6 7 8 9 10 11 12 13 14 15 16 17 18 19 20 21 22 23 24 25 26 27 28 29 30 31 32 33 34 35 36 37 38 39 40 41 42 43 44 45 46 47 48 49 50

921
ASUS43 KLMK 130010
RWRKY
KENTUCKY REGIONAL WEATHER ROUNDUP
NATIONAL WEATHER SERVICE LOUISVILLE KY
700 PM EST FRI FEB 12 2016

NOTE "FAIR" INDICATES FEW OR NO CLOUDS BELOW 12,000 FEET
WITH NO SIGNIFICANT WEATHER AND/OR OBSTRUCTIONS TO VISIBILITY.

KYZ001>023-026-027-061>063-070>075-130100-
WESTERN AND SOUTH CENTRAL KENTUCKY

CITY           SKY/WX    TMP DP  RH WIND       PRES   REMARKS
PADUCAH        PTCLDY    33  21  61 N6        30.35R WCI  28
HENDERSON      CLOUDY    28  18  64 W16G24    30.34R WCI  17
OWENSBORO      CLOUDY    30  21  69 NW18G25   30.32R WCI  18
HOPKINSVILLE   MOCLDY    34  24  69 NW13      30.31R WCI  25
BOWLING GREEN  CLOUDY    32  24  72 NW12G21   30.30R WCI  23
GLASGOW        CLOUDY    31  24  76 W13G18    30.26R WCI  21
$$

KYZ024-025-028>034-038-045-046-053-130100-
NORTH CENTRAL KENTUCKY

CITY           SKY/WX    TMP DP  RH WIND       PRES   REMARKS
LOUISVILLE/SDF FLURRIES  30  18  60 NW17      30.24R WCI  18
LOUISVILLE/LOU CLOUDY    30  19  63 NW20      30.24R WCI  17
FORT KNOX      CLOUDY    28  19  69 W17       30.23R WCI  16
$$

KYZ035>037-039>044-047>052-055>060-089>105-130100-
NORTHEAST KENTUCKY

CITY           SKY/WX    TMP DP  RH WIND       PRES   REMARKS
LEXINGTON      CLOUDY    29  17  61 NW17G29   30.18R WCI  17
COVINGTON      CLOUDY    26  15  63 W16G24    30.14R WCI  14
FRANKFORT      CLOUDY    29  17  61 NW14G21   30.19R WCI  18
$$

KYZ054-064>069-076>088-106>120-130100-
SOUTHEAST KENTUCKY

CITY           SKY/WX    TMP DP  RH WIND       PRES   REMARKS
JACKSON        CLOUDY    29  20  69 W10G17    30.11R WCI  20
LONDON         CLOUDY    30  22  72 W13       30.16R WCI  20
SOMERSET       CLOUDY    30  25  80 W8        30.21R WCI  23
MIDDLESBORO    CLOUDY    32  25  74 W6        30.17R WCI  26
MONTICELLO     CLOUDY    31  25  78 W15G21    30.22R WCI  20
$$





USA.gov is the U.S. government's official web portal to all federal, state and local government web resources and services.